| time (UTC) | temp C | wind direction | speed KPH | gust KPH | rain 1hr cm | rain 24hr cm | rain mn cm | humidity % | barometer mb |
| 20260507110803 | 20 | 185 | 3.2 | 4.8 | 0.00 | 3.56 | 0.25 | 48 | 1017.9 |
| 20260507110303 | 20 | 245 | 4.8 | 11.3 | 0.00 | 3.56 | 0.25 | 49 | 1017.9 |
| 20260507100802 | 17 | 234 | 3.2 | 4.8 | 0.00 | 3.63 | 0.25 | 56 | 1017.9 |
| 20260507100303 | 17 | 245 | 4.8 | 11.3 | 0.00 | 3.66 | 0.25 | 59 | 1017.9 |
| 20260507090803 | 16 | 166 | 1.6 | 4.8 | 0.00 | 3.71 | 0.25 | 65 | 1017.8 |
| 20260507090303 | 16 | 226 | 1.6 | 8.0 | 0.00 | 3.71 | 0.25 | 65 | 1017.8 |
| 20260507080803 | 14 | 206 | 1.6 | 3.2 | 0.00 | 3.71 | 0.25 | 70 | 1017.8 |
| 20260507080304 | 13 | 162 | 1.6 | 4.8 | 0.00 | 3.71 | 0.25 | 72 | 1017.8 |
| 20260507070803 | 12 | 192 | 1.6 | 4.8 | 0.00 | 3.71 | 0.25 | 80 | 1017.9 |
| 20260507070303 | 12 | 233 | 1.6 | 11.3 | 0.00 | 3.71 | 0.25 | 79 | 1017.8 |
| 20260507060804 | 11 | 99 | 8.0 | 12.9 | 0.00 | 3.76 | 0.25 | 84 | 1017.8 |
| 20260507060303 | 11 | 84 | 8.0 | 14.5 | 0.00 | 3.76 | 0.25 | 84 | 1017.8 |
| 20260507050803 | 9 | 64 | 3.2 | 4.8 | 0.00 | 3.84 | 0.25 | 93 | 1017.8 |
| 20260507050303 | 9 | 62 | 4.8 | 8.0 | 0.03 | 3.84 | 0.25 | 94 | 1017.8 |
| 20260507040803 | 9 | 69 | 1.6 | 8.0 | 0.13 | 3.86 | 0.25 | 94 | 1017.8 |
| 20260507030304 | 9 | 134 | 0.0 | 4.8 | 0.08 | 3.71 | 0.13 | 95 | 1017.8 |
| 20260507020803 | 9 | 260 | 0.0 | 3.2 | 0.00 | 3.63 | 0.05 | 94 | 1017.8 |
| 20260507020303 | 10 | 260 | 1.6 | 4.8 | 0.00 | 3.66 | 0.05 | 94 | 1017.8 |
| 20260507010803 | 10 | 219 | 1.6 | 1.6 | 0.00 | 3.68 | 0.05 | 94 | 1017.8 |
| 20260507010303 | 10 | 257 | 0.0 | 11.3 | 0.00 | 3.68 | 0.05 | 94 | 1017.8 |
| 20260507000803 | 10 | 257 | 1.6 | 3.2 | 0.00 | 3.71 | 0.05 | 93 | 1017.8 |
| 20260507000303 | 10 | 269 | 0.0 | 4.8 | 0.00 | 3.71 | 0.05 | 93 | 1017.8 |
| 20260506230804 | 9 | 54 | 0.0 | 3.2 | 0.05 | 3.71 | 0.05 | 93 | 1017.9 |
| 20260506220804 | 9 | 66 | 3.2 | 4.8 | 0.05 | 3.68 | 0.00 | 93 | 1017.9 |
| 20260506210804 | 8 | 163 | 0.0 | 0.0 | 0.61 | 3.68 | 3.66 | 92 | 1017.9 |
| 20260506210304 | 10 | 252 | 0.0 | 12.9 | 0.18 | 3.23 | 3.20 | 92 | 1017.9 |
| 20260506200804 | 10 | 46 | 0.0 | 3.2 | 0.00 | 3.05 | 3.05 | 91 | 1017.9 |
| 20260506200303 | 10 | 49 | 3.2 | 4.8 | 0.00 | 3.05 | 3.05 | 91 | 1017.9 |
| 20260506190304 | 10 | 277 | 3.2 | 4.8 | 0.48 | 3.05 | 3.05 | 92 | 1017.9 |
| 20260506180804 | 10 | 59 | 3.2 | 4.8 | 0.91 | 2.59 | 2.57 | 91 | 1018.0 |
| 20260506180304 | 10 | 68 | 4.8 | 8.0 | 0.97 | 2.57 | 2.54 | 91 | 1018.0 |
| 20260506170804 | 11 | 274 | 3.2 | 4.8 | 1.14 | 1.70 | 1.68 | 89 | 1018.0 |
| 20260506170304 | 11 | 285 | 1.6 | 20.9 | 1.09 | 1.60 | 1.57 | 90 | 1018.0 |
| 20260506160801 | 12 | 256 | 3.2 | 4.8 | 0.13 | 0.56 | 0.53 | 90 | 1018.0 |
| 20260506150304 | 14 | 250 | 3.2 | 11.3 | 0.00 | 0.41 | 0.41 | 81 | 1018.0 |
| 20260506140802 | 15 | 88 | 3.2 | 8.0 | 0.00 | 0.41 | 0.41 | 72 | 1018.1 |
| 20260506140302 | 15 | 0 | 4.8 | 16.1 | 0.00 | 0.41 | 0.41 | 71 | 1018.1 |
| 20260506130802 | 15 | 90 | 6.4 | 9.7 | 0.00 | 0.41 | 0.41 | 81 | 1018.0 |
| 20260506130303 | 14 | 148 | 0.0 | 8.0 | 0.00 | 0.41 | 0.41 | 83 | 1018.0 |
| 20260506120303 | 13 | 82 | 1.6 | 3.2 | 0.00 | 0.43 | 0.41 | 86 | 1018.0 |